Terminal Aerodrome Forecast
Issued by NWS

Home | Current Version | Previous Version | Graphics & Text | Print | Product List | Glossary On
Versions: 1 2 3 4 5 6 7 8 9 10 11 12 13 14 15 16
000
FTUS43 KMPX 231125
TAFRWF
TAF
KRWF 231125Z 2312/2412 VRB05KT P6SM FEW250
     FM232000 20012KT P6SM SCT200
     FM240300 16009KT P6SM SCT200
     FM240900 16012KT P6SM BKN200 WS020/21045KT=

USA.gov is the U.S. government's official web portal to all federal, state and local government web resources and services.